Location: Unspecified
(51.0950°N, 12.9690°E)
Time: 15:23:16
(UTC+00:00)

BEESAT - Pass Details

Date: 25 April 2024
Orbit: 692 x 702 km, 98.5° (Epoch: 27 May)

Event Time Altitude Azimuth Distance (km) Brightness Sun altitude
Rises 20:27:49 0° 23° (NNE) 3,084 ? -16.8°
Reaches altitude 10° 20:30:21 10° 35° (NE) 2,161 ? -17.0°
Maximum altitude 20:34:26 28° 94° (E) 1,284 ? -17.4°
Enters shadow 20:35:04 27° 109° (ESE) 1,310 ? -17.5°
